SCOUT A DEB, 4555

Orbit data source: Space-Track

SCOUT A DEB, 4555 is space debris in LEO originally from a launch on Thu, 19 May 1966 UTC launched from the Air Force Western Test Range (AFWTR). Debris objects in space refer to the collection of defunct objects orbiting the Earth. Examples of debris include non-operational satellites, rocket bodies, and fragments generated from explosions, collisions, or faulty payload assembly.

Loading next visibility...
Identifier
4555, 1966-041F
Orbit
LEO
Last TLE update
1 day ago
Origin
Manufacturer
Unknown
Mission
Spacecraft
Bus & Motor
Unknown
Mass
Unknown
Launch date (UTC)
1966-05-19 (59 years ago)
Launch vehicle
Unknown
Launch site
Air Force Western Test Range (AFWTR)
Object type
Payload
Rocket body
Debris
Shape & HBR
Unknown
Radar Cross Section
Small (<0.1 m²)

Expand to show TLE details & history

TLE from 1 day ago
0 SCOUT A DEB
1 04555U 66041F   25128.09309321  .00003695  00000-0  94099-3 0  9998
2 04555  90.2056  64.6819 0044988  57.1803 303.3724 14.49916801365171
Epoch: 2025-05-08T02:14Z
Definitive object data (Epoch: 2025-05-08T02:14:03.253Z)
Latitude
-0.00001°
Longitude
164.9998°
Altitude
711.534 km
Speed
7.509 km/s
True Right ascension
04h 18m 43s
True Declination
0° 00' 00"
Sunlit
Object was in daylight at TLE epoch
Visualization TLE readout
Latitude
-16.82387°
Longitude
-15.03408°
Altitude
758.253 km
Speed
7.461 km/s
Apparent Right ascension
19h 20m 13s
Apparent Declination
-55° 22' 46"
Sunlit
Object is in full shadow
Visualization observer readout
Local Sidereal Time
13:46:53
Azimuth
140.042° SSE
Elevation
-28.519°
Doppler factor
1
Orbital elements
Apogee altitude
754.772 km
Perigee altitude
690.88 km
Semi-major axis
7,100.963 km
Eccentricity
0.0044988
Inclination
90.2056°
RAAN
64.6819°
Arg. of periapsis
57.1803°
True anomaly
302.94055°
Mean anomaly
303.3724°
Eccentric anomaly
303.15661°
Mean motion
3.62716 °/min
BSTAR
0.00094099
Orbital period
99.25 mins
Loading maneuver chart data...
Loading SW <> Apogee altitude chart data...
Loading historical data...
Loading historical data...
Loading historical data...
Loading historical data...
Loading historical data...
Loading historical data...
Loading historical data...

SCOUT A DEB Visibility forecast

Observer location: undefined°, undefined°

Span
Click to sort rows by Start time (UTC) header in descending order
Start Az.
Max El. time (UTC)
Max El. Az.
Max El.
End time (UTC)
End Az.
5 mins2025-05-09 06:59:11.060Z46.083° ENE2025-05-09 07:02:11.060Z88.93° E17.415°2025-05-09 07:04:11.060Z116.527° SE
7 mins2025-05-09 08:38:11.060Z339.215° N2025-05-09 08:41:11.060Z275.963° WNW34.409°2025-05-09 08:45:11.060Z210.105° SW
7 mins2025-05-09 19:46:11.060Z158.266° S2025-05-09 19:49:11.060Z104.953° ESE39.89°2025-05-09 19:53:11.060Z8.482° NNE
|